Voltar ao catálogo

ZHIJIANG-2

AtivoCiênciaSSO
NORAD 63983·PAYLOAD·🇨🇳 China
Este nome de satélite ainda não foi confirmado por fontes oficiais.

Lançado May 14, 2025 de Jiuquan Satellite Launch Center

Loading…

Próximas Passagens (próximas 24 horas)

TLE

AtualizadoSource: Space-Track

Época: Sep 14, 2026, 22:07 UTC

1 63983U 25100B   26257.92186037  .00034715  00000-0  77274-3 0  9995
2 63983  97.3556 335.6602 0007009 335.4168  24.6744 15.43529361 74734

Acompanhe ZHIJIANG-2 em tempo real com AllMySat

Download on the App Store